Location: Riverside
(39.1734°N, 77.8561°W)
Time: 04:00:20
(UTC+00:00)

Hubble Space Telescope - Pass Details

Date: 28 November 2019
Orbit: 536 x 540 km, 28.5° (Epoch: 06 December)

Event Time Altitude Azimuth Distance (km) Brightness Sun altitude
Rises 22:50:45 0° 249° (WSW) 2,668 6.5 -11.7°
Reaches altitude 10° 22:54:23 10° 217° (SW) 1,776 4.3 -12.4°
Maximum altitude 22:55:50 12° 196° (SSW) 1,673 3.7 -12.6°
Drops below altitude 10° 22:57:17 10° 175° (S) 1,775 3.6 -12.9°
Sets 23:00:55 0° 142° (SE) 2,664 4.1 -13.6°
